Weather History for San Diego Montgomery, CA

Change the Weather History Date:

Saturday, December 7, 2013

  Actual Average Record
Temperature  
Mean Temperature 52 °F -  
Max Temperature 57 °F 64 °F 82 °F (2001)
Min Temperature 46 °F 45 °F 36 °F (1998)
Degree Days  
Heating Degree Days 14    
Growing Degree Days 2 (Base 50)    
Moisture  
Dew Point 44 °F    
Average Humidity 74    
Maximum Humidity 94    
Minimum Humidity 61    
Precipitation  
Precipitation 0.18 in - - ()
Sea Level Pressure  
Sea Level Pressure 30.09 in    
Wind  
Wind Speed 7 mph (SW)    
Max Wind Speed 15 mph    
Max Gust Speed 22 mph    
Visibility 8 miles    
Events Rain    
Averages and records for this station are not official NWS values.
T = Trace of Precipitation, MM = Missing Value Source: NWS Daily Summary

Daily Weather History Graph

Daily Weather History Graph

Search for Another Location

Airport:

Trip Planner

Search our weather history database for the weather conditions in past years. The results will help you decide how hot, cold, wet, or windy it might be!

Date:

Astronomy

Dec. 07, 2013 Rise Set
Actual Time 6:38 AM PST 4:42 PM PST
Civil Twilight 6:11 AM PST 5:09 PM PST
Nautical Twilight 5:40 AM PST 5:39 PM PST
Astronomical Twilight 5:10 AM PST 6:09 PM PST
Moon 10:37 AM PST (12/7) 10:16 PM PST (12/7)
Length of Visible Light 10h 58m
Length of Day
10h 03m
Waxing Crescent, 30% of the Moon is Illuminated
Dec 7
Waxing Crescent
Dec 9
First Quarter
Dec 17
Full
Dec 25
Last Quarter
Jan 1
New

Hourly Weather History & Observations

Time (PST) Temp. Windchill Dew Point Humidity Pressure Visibility Wind Dir Wind Speed Gust Speed Precip Events Conditions
12:53 AM 48.0 °F - 37.0 °F 66% 30.13 in 10.0 mi SE 3.5 mph - N/A   Overcast
1:53 AM 46.9 °F - 36.0 °F 66% 30.12 in 10.0 mi SE 5.8 mph - N/A   Mostly Cloudy
2:53 AM 46.0 °F 44.8 °F 36.0 °F 68% 30.12 in 10.0 mi SE 3.5 mph - N/A   Mostly Cloudy
3:53 AM 46.9 °F - 37.0 °F 68% 30.10 in 10.0 mi SSE 5.8 mph - N/A   Mostly Cloudy
4:53 AM 46.9 °F - 37.0 °F 68% 30.10 in 10.0 mi SSE 4.6 mph - N/A   Mostly Cloudy
5:53 AM 46.9 °F - 37.0 °F 68% 30.11 in 10.0 mi SE 4.6 mph - N/A   Mostly Cloudy
6:53 AM 48.0 °F - 37.9 °F 68% 30.12 in 10.0 mi SE 4.6 mph - 0.00 in Rain Light Rain
7:53 AM 48.9 °F - 37.9 °F 66% 30.13 in 10.0 mi ESE 4.6 mph - 0.00 in   Mostly Cloudy
8:53 AM 51.1 °F - 39.0 °F 63% 30.14 in 10.0 mi South 5.8 mph - N/A   Mostly Cloudy
9:53 AM 51.1 °F - 45.0 °F 80% 30.15 in 10.0 mi WSW 5.8 mph - 0.01 in   Mostly Cloudy
10:53 AM 55.0 °F - 45.0 °F 69% 30.13 in 10.0 mi SSW 5.8 mph - N/A   Mostly Cloudy
11:13 AM 55.4 °F - 46.4 °F 72% 30.12 in 10.0 mi Variable 6.9 mph - N/A   Mostly Cloudy
11:53 AM 57.0 °F - 44.1 °F 62% 30.09 in 10.0 mi SW 13.8 mph - N/A   Mostly Cloudy
12:53 PM 55.9 °F - 46.0 °F 69% 30.06 in 9.0 mi SW 13.8 mph - 0.00 in Rain Light Rain
1:53 PM 55.0 °F - 48.9 °F 80% 30.06 in 2.0 mi WSW 12.7 mph 21.9 mph 0.03 in Rain Rain
1:56 PM 53.6 °F - 48.2 °F 82% 30.05 in 1.5 mi WSW 15.0 mph 21.9 mph 0.02 in Rain Rain
2:24 PM 53.6 °F - 50.0 °F 88% 30.05 in 8.0 mi WSW 13.8 mph - 0.02 in Rain Light Rain
2:43 PM 53.6 °F - 50.0 °F 88% 30.05 in 4.0 mi WSW 9.2 mph - 0.03 in Rain Light Rain
2:46 PM 53.6 °F - 50.0 °F 88% 30.05 in 1.8 mi West 5.8 mph - 0.05 in Rain Rain
2:53 PM 53.1 °F - 50.0 °F 89% 30.05 in 6.0 mi WSW 4.6 mph - 0.10 in Rain Rain
3:00 PM 53.6 °F - 51.8 °F 94% 30.05 in 6.0 mi WSW 5.8 mph - 0.01 in Rain Light Rain
3:17 PM 53.6 °F - 51.8 °F 94% 30.04 in 6.0 mi SW 12.7 mph 18.4 mph 0.01 in   Overcast
3:53 PM 55.0 °F - 50.0 °F 83% 30.05 in 2.5 mi West 11.5 mph - 0.04 in Rain Heavy Rain
4:06 PM 55.4 °F - 50.0 °F 82% 30.05 in 10.0 mi West 10.4 mph - 0.00 in Rain Light Rain
4:53 PM 54.0 °F - 48.9 °F 83% 30.06 in 10.0 mi West 11.5 mph 17.3 mph 0.00 in   Mostly Cloudy
5:53 PM 53.1 °F - 46.0 °F 77% 30.06 in 10.0 mi West 8.1 mph - N/A   Mostly Cloudy
6:53 PM 53.1 °F - 44.1 °F 71% 30.09 in 10.0 mi West 10.4 mph - N/A   Mostly Cloudy
7:53 PM 53.1 °F - 41.0 °F 64% 30.12 in 10.0 mi West 13.8 mph 19.6 mph 0.00 in   Mostly Cloudy
8:53 PM 52.0 °F - 39.9 °F 63% 30.12 in 10.0 mi West 13.8 mph - N/A   Overcast
9:53 PM 52.0 °F - 39.0 °F 61% 30.12 in 10.0 mi West 6.9 mph - N/A   Mostly Cloudy
10:53 PM 51.1 °F - 39.0 °F 63% 30.12 in 10.0 mi SW 4.6 mph - N/A   Mostly Cloudy
11:53 PM 51.1 °F - 39.9 °F 66% 30.12 in 10.0 mi WSW 4.6 mph - N/A   Mostly Cloudy